Location: Ballingbuur
(53.0000°N, 5.7667°E)
Time: 06:55:32
(UTC+00:00)

SJ 16-02 - Pass Details

Date: 29 November 2020
Orbit: 606 x 616 km, 75.0° (Epoch: 24 January)

Event Time Altitude Azimuth Distance (km) Brightness Sun altitude
Exits shadow 03:09:08 14° 94° (E) 1,724 4.2 -37.3°
Drops below altitude 10° 03:11:26 10° 62° (ENE) 1,986 4.7 -37.0°
Sets 03:14:38 0° 38° (NE) 2,899 5.4 -36.5°
